STARLINK-32281, 60375

Orbit data source: Space-Track

STARLINK-32281, 60375 is a payload satellite owned by SpaceX/Seattle (US) in LEO that was launched on Sun, 04 Aug 2024 UTC via an FALCON 9 launch vehicle from the Air Force Western Test Range (AFWTR). Payload-class satellites include a variety of spacecraft equipped with specific instruments for various scientific and technological missions. These include communications satellites like Starlink; space stations such as the ISS; scientific satellites like the Hubble; Earth observation satellites from companies like Planet Labs, Umbra, and HawkEye 360; GPS; miniature CubeSats for education and research; and military/defense satellites.

Loading next visibility...
Identifier
60375, 2024-138W
Orbit
LEO
Country
Flag of USUS
Related business
Manufacturer
SpaceX/Seattle
Mission
Operational Commercial Communications
Bus & Motor
STARLINK V2M, Unknown motor
Mass
730 kg wet, ~700 kg dry
Launch date (UTC)
2024-08-04 (1 year ago)
Launch vehicle
FALCON 9
Launch site
Air Force Western Test Range (AFWTR)
Object type
Payload
Rocket body
Debris
Shape & HBR
Box + 2 Pan, 17.7 m
Radar Cross Section
33.884 m², Large (>1 m²)

Expand to show TLE details & history
Last TLE update: 9 hours ago

TLE from 9 hours ago
0 STARLINK-32281
1 60375U 24138W   25291.25938868  .00001806  00000-0  73083-4 0  9997
2 60375  53.1597 250.9780 0001038  87.7150 272.3970 15.30197087 68728
Epoch: 2025-10-18T06:13Z
TLE epoch observation values (Epoch: 2025-10-18T06:13:31.181Z)
Latitude
-0.00001°
Longitude
130.6051°
Altitude
476.094 km
Speed
7.629 km/s
True Right ascension
16h 43m 54s
True Declination
0° 00' 00"
Sunlit
Object was in daylight at epoch
Visualization orbit readout
Latitude
Unknown
Longitude
Unknown
Altitude
Unknown
Speed
Unknown
Apparent Right ascension
Unknown
Apparent Declination
Unknown
Sunlit
N/A
Visualization observer readout
Local Sidereal Time
09:36:16
Azimuth
Unknown
Elevation
Unknown
Doppler factor
Unknown
Orbital elements
Apogee altitude
476.192 km
Perigee altitude
474.769 km
Semi-major axis
6,853.617 km
Eccentricity
0.0001
Inclination
53.1597°
RAAN
250.978°
Arg. of periapsis
87.715°
True anomaly
272.38512°
Mean anomaly
272.397°
Eccentric anomaly
272.39106°
Mean motion
3.82528 °/min
Orbital period
94.11 mins
BSTAR
0.000073083
Loading maneuver chart data...
Computing Atmospheric mass density...
Loading historical data...
Loading historical data...
Loading historical data...
Loading historical data...
Loading historical data...
Loading historical data...
Loading historical data...

Documentation

Showing up to 5 results
|